East Wenatchee, WA

12:42 AM PST on January 24, 2017 (GMT -0800)
Pangborn Memorial

Weather History for KEAT - January, 2017

Change the Weather History Date:

Wednesday, January 11, 2017

  Actual Average Record
Temperature  
Mean Temperature 5 °F 27 °F  
Max Temperature 18 °F 32 °F 53 °F (2014)
Min Temperature -8 °F 22 °F -8 °F (2017)
Degree Days  
Heating Degree Days 60 38  
Month to date heating degree days 569 427  
Since 1 July heating degree days 3469 3525  
Cooling Degree Days 0 0  
Month to date cooling degree days 0 0  
Year to date cooling degree days 0 0  
Moisture  
Dew Point 4 °F    
Average Humidity 65    
Maximum Humidity 80    
Minimum Humidity 53    
Precipitation  
Precipitation 0.00 in 0.07 in 0.26 in (1980)
Month to date precipitation 0.74 0.78  
Year to date precipitation 0.74 0.78  
Snow  
Snow 0.00 in 0.50 in - ()
Month to date snowfall 10.3 6.6  
Since 1 July snowfall 31.4 31.5  
Snow Depth 13.00 in    
Sea Level Pressure  
Sea Level Pressure 29.88 in    
Wind  
Wind Speed 5 mph (West)    
Max Wind Speed 16 mph    
Max Gust Speed -    
Visibility 10 miles    
Events      
T = Trace of Precipitation, MM = Missing Value Source: NWS Daily Summary

Daily Weather History Graph

Daily Weather History Graph

Search for Another Location

Airport or City:

Trip Planner

Search our weather history database for the weather conditions in past years. The results will help you decide how hot, cold, wet, or windy it might be!

Date:

Astronomy

Jan. 11, 2017 Rise Set
Actual Time 7:45 AM PST 4:32 PM PST
Civil Twilight 7:10 AM PST 5:07 PM PST
Nautical Twilight 6:32 AM PST 5:45 PM PST
Astronomical Twilight 5:55 AM PST 6:22 PM PST
Moon 4:14 PM PST (1/11) 6:43 AM PST (1/11)
Length of Visible Light 9h 56m
Length of Day
8h 47m
Waxing Gibbous, 99% of the Moon is Illuminated
Jan 11
Waxing Gibbous
Jan 12
Full
Jan 19
Last Quarter
Jan 27
New
Feb 3
First Quarter

Hourly Weather History & Observations

Time (PST) Temp. Windchill Dew Point Humidity Pressure Visibility Wind Dir Wind Speed Gust Speed Precip Events Conditions
12:10 AM 17.6 °F - 6.8 °F 63% 29.70 in 10.0 mi Calm Calm - N/A   Overcast
12:55 AM - - - N/A% 29.71 in 10.0 mi West 5.8 mph - N/A   Scattered Clouds
1:55 AM - - - N/A% 29.72 in 10.0 mi WSW 6.9 mph - N/A   Overcast
2:55 AM - - - N/A% 29.73 in 10.0 mi WNW 8.1 mph - N/A   Overcast
3:55 AM - - - N/A% 29.73 in 10.0 mi West 16.1 mph - N/A   Overcast
4:55 AM - - - N/A% 29.74 in 10.0 mi WNW 10.4 mph - N/A   Overcast
5:24 AM 15.8 °F 3.4 °F 3.2 °F 58% 29.74 in 10.0 mi West 10.4 mph - N/A   Overcast
5:55 AM - - - N/A% 29.75 in 10.0 mi West 11.5 mph - N/A   Overcast
5:56 AM 15.8 °F 3.4 °F 3.2 °F 58% 29.75 in 10.0 mi WSW 10.4 mph - N/A   Overcast
6:55 AM - - - N/A% 29.77 in 10.0 mi WNW 9.2 mph - N/A   Overcast
6:58 AM 15.8 °F 5.1 °F 3.2 °F 58% 29.77 in 10.0 mi West 8.1 mph - N/A   Overcast
7:55 AM - - - N/A% 29.81 in 10.0 mi West 5.8 mph - N/A   Overcast
8:03 AM 15.8 °F 7.2 °F 3.2 °F 58% 29.81 in 10.0 mi West 5.8 mph - N/A   Overcast
8:55 AM - - - N/A% 29.85 in 10.0 mi West 4.6 mph - N/A   Overcast
8:58 AM 15.8 °F 8.6 °F 3.2 °F 58% 29.85 in 10.0 mi WSW 4.6 mph - N/A   Overcast
9:55 AM - - - N/A% 29.88 in 10.0 mi Calm Calm - N/A   Overcast
9:56 AM 15.8 °F - 3.2 °F 58% 29.88 in 10.0 mi Calm Calm - N/A   Overcast
10:55 AM - - - N/A% 29.89 in 10.0 mi Calm Calm - N/A   Overcast
10:57 AM 17.6 °F 12.3 °F 3.2 °F 53% 29.89 in 10.0 mi West 3.5 mph - N/A   Overcast
11:55 AM - - - N/A% 29.88 in 10.0 mi West 6.9 mph - N/A   Overcast
11:56 AM 17.6 °F 9.3 °F 5.0 °F 58% 29.88 in 10.0 mi West 5.8 mph - N/A   Overcast
12:55 PM 17.1 °F 10.0 °F 3.9 °F 56% 29.90 in 10.0 mi West 4.6 mph - N/A   Overcast
1:55 PM 17.1 °F 8.7 °F 5.0 °F 59% 29.91 in 10.0 mi West 5.8 mph - N/A   Overcast
2:55 PM 17.1 °F 10.0 °F 6.1 °F 62% 29.94 in 10.0 mi West 4.6 mph - N/A   Overcast
3:55 PM 15.1 °F - 6.1 °F 68% 29.97 in 10.0 mi Calm Calm - N/A   Overcast
4:55 PM 12.0 °F 5.9 °F 3.9 °F 70% 29.99 in 10.0 mi NW 3.5 mph - N/A   Partly Cloudy
5:55 PM 12.0 °F 5.9 °F 3.0 °F 67% 30.02 in 10.0 mi NNW 3.5 mph - N/A   Partly Cloudy
6:55 PM 10.0 °F 3.6 °F 3.0 °F 73% 30.04 in 10.0 mi NW 3.5 mph - N/A   Partly Cloudy
7:55 PM 10.9 °F - 3.0 °F 70% 30.07 in 10.0 mi Calm Calm - N/A   Overcast
8:55 PM 9.0 °F 2.4 °F 3.0 °F 77% 30.09 in 10.0 mi NW 3.5 mph - N/A   Scattered Clouds
9:55 PM 7.0 °F 0.1 °F 1.0 °F 77% 30.12 in 10.0 mi North 3.5 mph - N/A   Clear
10:55 PM 8.1 °F 1.4 °F 3.0 °F 80% 30.13 in 10.0 mi WSW 3.5 mph - N/A   Clear
11:55 PM 6.1 °F - 1.0 °F 80% 30.15 in 10.0 mi Calm Calm - N/A   Clear